Погода в Сан-Мартино-ди-Кастроцца

Италия     46°15′42″N   11°48′04″E
темп.,
°C
ветер,
м/с
пор.,
м/с
влажн.,
%
обл.,
%
осадки,
мм/ч
давл.,
гПа
погр.,
м
5 августа, чт
чт523:00+9ююв23100100 6.9 1012149
02:00+9ю01100100 10.8 1010162
05:00+9сз3499100 11.6 1007298
08:00+8ссз349591 20.4 1008203
11:00+15ссз23520 0.0 10071064
14:00+16ссз125594 0.6 10071542
17:00+15ю227369 1.8 1007780
20:00+10юз118715 4.1 100911
6 августа, пт
пт623:00+8ссз228942 0.6 101119
02:00+7ссз22897 0.6 101122
05:00+7ссз2289100 0.0 101023
08:00+11с11779 0.0 101077
11:00+16ююв225427 0.0 10091422
14:00+15ю228024 1.9 1010746
17:00+16ююв227375 1.3 1010818
20:00+12ю119821 1.9 101236
7 августа, сб
сб723:00+9ссз11974 0.4 101311
02:00+9ссз119744 0.4 101411
05:00+9з009760 0.0 101321
08:00+11юв019568 0.0 1014206
11:00+12ююв2295100 0.4 1014296
14:00+15ю238199 1.3 1012835
17:00+15ююв238568 0.6 1012625
20:00+13ююз119717 1.2 101252
8 августа, вс
вс823:00+10ююв01965 0.4 101313
02:00+10юз019953 0.8 101316
05:00+11св019984 0.0 101246
08:00+12юв119786 0.0 1013145
11:00+16ююв337649 0.2 1012946
14:00+14ююв338785 1.1 1014639
17:00+13ю229556 1.6 1015277
20:00+12з119199 2.6 101612
9 августа, пн
пн923:00+9ссз22955 0.2 101929
02:00+9с2294100 0.2 102022
05:00+9с1195100 0.0 101913
08:00+12юв1294100 0.2 101995
11:00+14ю228797 1.4 1019649
14:00+14ю228698 2.8 1020514
17:00+14ююз128580 2.3 1020501
20:00+11ссз119149 4.3 102112